Location: Krasnoyarskiy Pitomnik
(51.1333°N, 71.6167°E)
Time: 04:26:30
(UTC+00:00)

Transit 2A - Pass Details

Date: 20 April 2024
Orbit: 594 x 958 km, 66.7° (Epoch: 21 May)

Event Time Altitude Azimuth Distance (km) Brightness Sun altitude
Rises 08:25:54 0° 322° (NW) 3,148 9.0 47.9°
Reaches altitude 10° 08:28:25 10° 333° (NNW) 2,283 8.3 47.7°
Maximum altitude 08:33:09 33° 37° (NE) 1,339 7.2 47.3°
Drops below altitude 10° 08:38:18 10° 100° (E) 2,497 8.6 46.9°
Sets 08:41:09 0° 110° (ESE) 3,488 9.3 46.7°
